Location: Colombier
(46.5562°N, 6.4728°E)
Time: 07:10:00
(UTC+00:00)

Daily predictions for brighter satellites

Satellite Brightness Start Highest point End
(mag) Time Altitude Azimuth Time Altitude Azimuth Time Altitude Azimuth
Cosmos 1727 Rocket 4.2 19:16:13 10° N 19:22:33 63° ENE 19:28:49 10° SSE
Cosmos 2251 Rocket 3.5 19:17:49 10° S 19:23:01 70° ESE 19:28:18 10° NNE
Cosmos 1656 3.8 19:21:43 10° NNW 19:27:09 61° ENE 19:32:37 10° SE
Cosmos 1633 3.1 19:27:17 10° SSW 19:30:46 61° W 19:34:18 10° N
Resurs 01 Rocket 2.2 19:28:36 10° SE 19:32:45 42° ENE 19:36:56 10° N
Cosmos 972 Rocket 3.9 19:28:40 10° NNW 19:33:44 79° ENE 19:38:37 10° SSE
Cosmos 1441 Rocket 3.8 19:34:33 10° SSE 19:38:02 34° E 19:41:29 10° NNE
Cosmos 614 Rocket 4.3 19:36:42 10° S 19:41:33 44° ESE 19:46:29 10° NNE
Cosmos 1900 4.3 19:39:50 10° SSW 19:44:46 79° ESE 19:49:49 10° NE
USA 267 3.3 19:42:13 10° ENE 19:48:40 57° SE 19:55:04 10° SW
IRIDIUM 103 4.4 19:44:38 10° S 19:49:47 66° E 19:54:58 10° N
GP-B 4.5 19:46:54 10° NNE 19:50:23 22° E 19:53:13 13° SE
Cosmos 1821 Rocket 4.1 19:45:58 10° S 19:51:57 57° E 19:58:01 10° NNE
COSMOS 2406 3.2 19:48:10 10° SSW 19:53:51 67° ESE 19:59:33 10° NNE
Shenzhou-11 Module 2.4 19:52:07 10° WSW 19:54:16 30° S 19:55:30 18° SE
Cosmos 1743 Rocket 4.3 19:50:41 10° SSW 19:55:04 59° WNW 19:59:30 10° N
CZ-2C R/B 3.7 19:51:56 10° NNE 19:56:37 79° ESE 20:01:09 10° S
SL-16 R/B 4.3 19:54:12 10° N 19:57:29 15° NE 20:00:46 10° ENE
Intercosmos 25 3.3 19:53:45 10° N 19:58:19 64° ENE 20:01:26 12° SSE
ERS-1 Rocket 4.3 19:56:08 12° ESE 19:59:39 24° ENE 20:03:37 10° N
Lacrosse 5 3.5 19:56:00 10° NW 20:00:22 28° NNE 20:04:44 10° ENE
Cosmos 1862 3.4 19:59:13 10° S 20:03:16 86° W 20:07:22 10° N
Cosmos 2369 3.9 19:57:40 10° NNW 20:03:22 60° ENE 20:08:05 15° SE
Sich 1 3.1 19:59:49 10° S 20:04:11 62° E 20:08:35 10° NNE
Cosmos 1818 3.6 20:02:30 10° NW 20:08:00 84° NE 20:12:24 16° SE
BREEZE-M DEB (TANK) 2.7 20:04:44 10° W 20:08:02 48° N 20:09:54 10° ENE
IRIDIUM 106 4.4 20:02:51 10° S 20:08:04 87° W 20:13:20 10° N
Cosmos 2082 Rocket 2.7 20:03:54 10° S 20:09:04 37° ESE 20:14:15 10° NE
Cosmos 2278 4.2 20:07:03 10° NNW 20:12:38 49° ENE 20:16:44 18° SE
Cosmos 2123 Rocket 4.2 20:07:00 10° N 20:13:04 53° ENE 20:18:06 15° SSE
Spot 2 Rocket 3.7 20:11:25 16° SE 20:15:25 55° ENE 20:20:25 10° N
Cosmos 2322 Rocket 4.1 20:16:20 10° N 20:20:08 18° NE 20:23:54 10° E
Meteor 1-4 Rocket 2.8 20:17:22 10° N 20:20:46 47° ENE 20:22:26 25° SE
Cosmos 2239 Rocket 4.4 20:15:07 10° S 20:21:15 80° E 20:27:25 10° N
Cosmos 1184 Rocket 3.8 20:21:01 25° ESE 20:21:48 28° E 20:24:40 10° NNE
Cosmos 1190 Rocket 4.1 20:16:41 10° S 20:21:51 59° ESE 20:27:04 10° NNE
Terra 3.2 20:21:08 16° ESE 20:23:34 24° ENE 20:27:20 10° N
CZ-2C R/B 4.0 20:19:22 10° N 20:24:12 41° WNW 20:29:02 10° SW
USA 234 3.4 20:18:46 15° ESE 20:24:14 73° NNE 20:30:45 10° NW
Cosmos 407 Rocket 3.5 20:19:27 10° SSW 20:24:47 76° ESE 20:30:05 10° NNE
Cosmos 1605 Rocket 4.5 20:21:08 16° SSE 20:25:28 40° E 20:31:05 10° NNE
Cosmos 1666 Rocket 3.5 20:21:30 10° S 20:25:47 69° E 20:30:05 10° NNE
Cosmos 1238 Rocket 3.7 20:28:02 20° E 20:28:02 20° E 20:30:03 10° NE
MetOp-B 4.2 20:25:44 14° SSE 20:30:23 86° WSW 20:35:48 10° NNW
Meteor 1-27 Rocket 3.9 20:25:37 10° NNW 20:31:33 82° W 20:36:53 13° S
Cosmos 2360 Rocket 4.4 20:31:08 10° N 20:34:02 14° NE 20:36:54 10° ENE
BREEZE-M DEB (TANK) 3.9 20:34:33 10° W 20:37:25 16° WSW 20:39:00 12° SSW
USA 238 DEB 4.0 20:31:36 10° S 20:37:39 40° ESE 20:43:55 10° NE
USA 238 4.0 20:31:44 10° S 20:37:45 39° ESE 20:44:00 10° NE
SPOT 5 3.3 20:35:54 25° ESE 20:37:46 38° ENE 20:41:48 10° N
SPOT 1/Viking Rocket 3.5 20:39:53 22° SSE 20:43:16 79° ENE 20:48:32 10° NNW
Cosmos 1980 Rocket 2.2 20:38:10 10° NNW 20:43:52 74° ENE 20:47:05 27° SE
Cosmos 2242 Rocket 4.3 20:41:55 10° N 20:46:04 37° ENE 20:47:28 29° ESE
SL-4 R/B 1.6 20:43:51 10° SW 20:47:47 72° SSE 20:51:26 10° ENE
BREEZE-M DEB (TANK) 3.0 20:46:06 10° W 20:48:54 64° N 20:56:22 10° ENE
Genesis I 3.2 20:45:32 10° NNW 20:49:24 67° NE 20:50:44 38° ESE
Cosmos 405 Rocket 3.3 20:49:22 33° E 20:49:33 33° E 20:52:55 10° NNE
Cosmos 1140 Rocket 3.5 20:45:12 10° SSW 20:50:27 85° WNW 20:55:45 10° NNE
ATLAS 5 CENTAUR R/B 3.7 20:47:08 10° NW 20:52:21 33° WSW 20:57:17 14° S
USA 32 3.9 20:53:02 22° S 20:56:29 77° E 21:01:44 10° N
Cosmos 1633 Rocket 3.4 20:55:05 12° SSW 20:59:05 65° W 21:03:30 10° N
Cosmos 1697 Rocket 3.4 20:54:05 10° NW 20:59:28 48° WSW 21:03:04 20° S
Cosmos 1833 Rocket 3.3 20:54:12 10° SW 20:59:43 58° WNW 21:05:17 10° NNE
Cosmos 1867 3.4 21:00:40 10° SSW 21:06:05 78° ESE 21:11:34 10° NE
CENTAUR R/B 3.0 21:04:46 31° SE 21:06:14 35° ESE 21:12:18 10° NE
Meteor 1-18 Rocket 4.3 21:02:00 10° N 21:07:35 62° ENE 21:09:50 35° SE
Okean 1-7 3.6 21:03:39 10° N 21:07:45 39° ENE 21:08:30 36° E
Resurs 01 Rocket 3.8 21:06:00 10° SW 21:09:25 22° W 21:12:51 10° NW
FALCON 9 DEB 3.0 21:09:58 10° WSW 21:13:28 89° SSE 21:15:22 25° ENE
Cosmos 1447 Rocket 4.5 21:08:23 10° N 21:14:47 76° E 21:17:47 33° SSE
Cosmos 1850 Rocket 4.4 21:14:19 38° SE 21:15:11 41° ESE 21:20:07 10° NE
Meteor 2-4 Rocket 4.3 21:11:46 10° N 21:17:12 42° ENE 21:18:53 34° ESE
Cosmos 1515 3.9 21:14:26 10° N 21:18:12 50° ENE 21:18:22 50° E
Cosmos 676 Rocket 4.1 21:14:03 10° SSW 21:19:21 77° WNW 21:24:44 10° NNE
ATLAS 5 CENTAUR R/B 3.4 21:19:00 10° NNW 21:21:25 27° NE 21:23:25 20° E
Meteor 1-25 Rocket 4.2 21:17:53 22° SSW 21:21:32 83° WNW 21:27:10 10° N
Cosmos 1470 Rocket 3.8 21:19:31 27° SSW 21:21:48 67° W 21:26:12 10° N
GP-B 4.3 21:23:42 10° NNW 21:27:50 38° W 21:30:41 18° SW
USA 267 3.9 21:25:18 10° NE 21:31:41 58° NNW 21:38:04 10° WSW
NOSS 3-2 (A) 3.3 21:26:26 10° SW 21:32:07 85° SE 21:38:41 10° NE
Cosmos 921 Rocket 3.2 21:29:58 10° NNW 21:34:08 60° WSW 21:34:50 51° SSW
NOSS 3-2 (C) 3.3 21:35:51 37° S 21:38:03 61° ESE 21:44:24 10° NE
ERS-1 Rocket 3.6 21:36:08 32° SSW 21:38:08 50° W 21:43:02 10° NNW
Cosmos 841 Rocket 4.1 21:35:48 10° NNW 21:40:50 45° ENE 21:42:00 39° E
SAR-Lupe-2 4.5 21:37:37 10° N 21:41:05 46° WNW 21:41:55 38° WSW
Cosmos 540 Rocket 4.0 21:37:18 10° N 21:42:17 45° ENE 21:43:22 39° E
SL-16 R/B 2.3 21:37:05 10° NNW 21:42:45 66° ENE 21:44:17 47° ESE
Lacrosse 5 2.1 21:39:03 10° NW 21:44:06 65° NE 21:45:31 45° E
Cosmos 468 Rocket 4.0 21:39:11 10° NNW 21:44:31 83° WSW 21:45:45 54° S
Cosmos 1741 Rocket 3.9 21:48:22 54° S 21:49:31 76° ESE 21:54:49 10° NNE
Cosmos 1570 Rocket 4.3 21:46:54 10° NNW 21:52:10 58° ENE 21:53:10 49° ESE
Cosmos 2082 Rocket 3.5 21:47:49 10° WSW 21:53:08 39° NW 21:58:27 10° NNE
Cosmos 2219 Rocket 4.2 21:49:25 10° N 21:53:22 19° NE 21:56:38 12° E
Cosmos 2208 Rocket 4.4 21:49:06 10° NNW 21:54:15 50° ENE 21:55:11 45° E
Cosmos 1814 Rocket 4.4 21:49:34 10° NNW 21:54:37 48° ENE 21:55:32 43° E
Terra 2.5 22:00:02 40° SW 22:01:02 46° W 22:05:38 10° NNW
Cosmos 2322 Rocket 2.1 21:59:24 10° NNW 22:05:08 80° ENE 22:06:13 59° SE
Cosmos 2100 Rocket 3.9 22:05:36 47° SSW 22:07:31 86° W 22:13:42 10° N
USA 234 3.8 22:06:06 36° SSW 22:07:31 40° SW 22:13:37 10° WNW
Meteor 1-11 Rocket 3.9 22:09:09 52° ESE 22:09:34 54° E 22:15:08 10° NNE
Cosmos 1437 Rocket 3.8 22:07:31 10° NNW 22:10:50 38° W 22:10:50 38° W
Cosmos 1242 Rocket 4.4 22:09:57 10° N 22:12:07 24° NE 22:12:07 24° NE
Cosmos 1869 Rocket 3.6 22:13:01 69° W 22:13:11 69° W 22:17:38 10° N
SPOT 5 4.4 22:15:08 21° WSW 22:16:01 22° W 22:19:26 10° NW
Cosmos 2360 Rocket 2.4 22:13:42 10° NNW 22:19:19 58° ENE 22:20:19 51° E
COSMOS 2428 4.4 22:15:22 10° N 22:20:02 25° NE 22:22:36 18° E
ATLAS 3B R/B 2.8 22:21:12 47° ESE 22:21:12 47° ESE 22:27:24 10° NE
Geosat 3.8 22:20:48 76° S 22:21:10 82° WSW 22:26:14 10° NNW
Iridium 4 Rocket 3.3 22:21:45 62° W 22:21:45 62° W 22:25:58 10° N
Cosmos 2173 Rocket 4.1 22:21:11 45° SSW 22:23:06 72° W 22:29:15 10° N
Cosmos 1500 4.1 22:25:10 44° NW 22:25:10 44° NW 22:28:16 10° N
CRYOSAT 2 4.2 22:21:54 10° N 22:26:46 80° E 22:26:46 80° E
Cosmos 1980 Rocket 4.1 22:23:26 10° WNW 22:27:12 18° W 22:28:51 16° WSW
ALOS 2 3.4 22:27:44 42° ENE 22:27:44 42° ENE 22:31:35 10° N
SL-4 R/B 3.0 22:23:59 10° W 22:27:12 39° NNW 22:27:12 39° NNW
Cosmos 1725 Rocket 3.9 22:27:19 60° SSE 22:28:23 73° E 22:34:42 10° NNE
USA 238 DEB 4.3 22:21:55 10° WSW 22:28:25 53° NW 22:35:14 10° NE
USA 238 4.3 22:22:02 10° WSW 22:28:31 53° NW 22:35:20 10° NE
Cosmos 1763 Rocket 4.3 22:25:40 10° NW 22:30:35 39° WSW 22:31:09 38° WSW
SL-08 R/B 4.3 22:32:19 65° SSE 22:33:14 81° E 22:39:20 10° N
Cosmos 1536 3.7 22:34:39 44° NNE 22:34:39 44° NNE 22:37:30 10° NNE
Cosmos 1674 Rocket 4.3 22:29:39 10° N 22:33:13 45° NE 22:33:13 45° NE
Cosmos 1666 3.8 22:37:32 41° N 22:37:32 41° N 22:40:04 10° N
Cosmos 2333 Rocket 3.2 22:34:22 10° NNW 22:39:45 38° NE 22:41:19 32° E
Cosmos 2016 Rocket 4.0 22:39:51 55° SSW 22:41:18 77° W 22:47:43 10° N
Cosmos 1271 Rocket 4.4 22:38:27 10° N 22:40:47 26° NE 22:40:47 26° NE
Cosmos 2061 Rocket 4.0 22:41:23 56° SSW 22:42:43 75° W 22:48:56 10° N
Meteor 1-13 Rocket 4.2 22:37:25 10° NNW 22:42:53 64° W 22:43:23 61° SW
Lacrosse 4 Rocket 3.5 22:45:24 19° ENE 22:45:24 19° ENE 22:46:51 10° NE
MOS 1-B Rocket 4.0 22:39:49 10° N 22:45:29 66° WNW 22:46:44 51° SW
Cosmos 2221 Rocket 4.1 22:42:32 10° NNW 22:46:29 53° WNW 22:46:29 53° WNW
Cosmos 1733 Rocket 3.5 22:50:59 61° N 22:50:59 61° N 22:54:40 10° N
Cosmos 1066 Rocket 4.0 22:47:41 10° NNW 22:53:27 88° W 22:53:46 81° S
Meteor 1-23 Rocket 4.1 22:49:24 10° N 22:55:16 89° W 22:55:43 78° S
CENTAUR R/B 3.2 22:51:50 17° WSW 22:56:33 55° NW 23:03:41 10° NE
Thor Agena Rocket 3.6 22:51:40 10° N 22:56:44 69° WNW 22:57:00 68° W
Cosmos 968 Rocket 4.3 22:59:01 39° ENE 22:59:01 39° ENE 23:02:51 10° NE
Cosmos 967 Rocket 4.4 22:54:19 10° NW 23:00:38 65° WSW 23:01:03 64° SW
Cosmos 44 4.0 22:57:34 10° NW 23:01:33 46° W 23:01:33 46° W
Cosmos 2233 Rocket 3.9 23:14:31 66° SW 23:15:23 79° W 23:21:46 10° N
Cosmos 1908 Rocket 4.3 23:18:33 49° NNE 23:18:33 49° NNE 23:21:51 10° NNE
Cosmos 2227 Rocket 4.4 23:22:42 12° E 23:22:42 12° E 23:24:11 10° ENE
SL-16 R/B 3.9 23:22:12 10° NW 23:26:08 21° W 23:26:08 21° W
Lacrosse 5 3.6 23:22:26 10° WNW 23:24:41 22° W 23:24:41 22° W
Cosmos 1833 4.3 23:28:44 63° W 23:29:18 67° WNW 23:34:58 10° NNE
Cosmos 2322 3.6 23:23:57 10° NNW 23:29:31 78° W 23:29:31 78° W
Cosmos 1378 Rocket 4.4 23:25:24 10° NNW 23:28:49 45° NW 23:28:49 45° NW
Cosmos 2219 Rocket 2.1 23:32:28 10° NNW 23:38:12 86° ENE 23:38:19 85° ESE
Cosmos 1975 Rocket 3.7 23:38:45 10° N 23:42:25 55° NNE 23:42:25 55° NNE
Cosmos 1513 Rocket 4.5 23:42:38 66° SE 23:43:17 71° E 23:49:42 10° NNE
Cosmos 2333 4.4 23:38:18 10° NNW 23:43:44 61° W 23:43:44 61° W
Cosmos 2034 Rocket 4.3 23:43:53 49° ESE 23:44:33 51° E 23:50:36 10° NNE
Cosmos 1503 Rocket 4.1 23:45:55 72° ENE 23:45:55 72° ENE 23:50:57 10° NNE
Cosmos 1072 Rocket 4.3 23:46:51 74° SE 23:47:18 79° E 23:53:25 10° N
Cosmos 2322 Rocket 4.1 23:44:55 10° WNW 23:48:01 17° W 23:48:01 17° W
Helios 1A 4.0 23:49:48 44° NW 23:49:48 44° NW 23:52:48 10° NNW
SL-16 R/B 4.3 23:46:15 14° ESE 23:50:10 26° ENE 23:55:11 10° N
Cosmos 1486 Rocket 4.3 23:52:11 57° WNW 23:52:19 57° WNW 23:57:28 10° NNE
SL-16 R/B 4.4 23:49:32 10° N 23:53:48 21° NE 23:58:03 10° E
CZ-2D R/B 4.2 23:50:48 10° NE 23:54:03 16° E 23:54:54 15° E
Sich 1 Rocket 4.4 23:55:31 47° NE 23:55:31 47° NE 23:58:53 10° NNE
